| time (UTC) | temp F | wind direction | speed knots | gust knots | rain 1hr in | rain 24hr in | rain mn in | humidity % | barometer mb |
| 20260507040016 | 57 | 0.0 | 4.3 | 0.00 | 0.00 | 0.00 | 75 | 1018.9 | |
| 20260507035037 | 57 | 0.0 | 2.6 | 0.00 | 0.00 | 0.00 | 74 | 1018.6 | |
| 20260507034016 | 57 | 0.0 | 2.6 | 0.00 | 0.00 | 0.00 | 73 | 1018.7 | |
| 20260507033017 | 58 | 0.0 | 2.6 | 0.00 | 0.00 | 0.00 | 73 | 1018.6 | |
| 20260507032017 | 58 | 0.0 | 2.6 | 0.00 | 0.00 | 0.00 | 72 | 1018.6 | |
| 20260507031017 | 59 | 0.0 | 2.6 | 0.00 | 0.00 | 0.00 | 72 | 1018.5 | |
| 20260507030017 | 59 | 0.0 | 1.7 | 0.00 | 0.00 | 0.00 | 73 | 1018.5 | |
| 20260507025017 | 59 | 0.0 | 4.3 | 0.00 | 0.00 | 0.00 | 73 | 1018.5 | |
| 20260507024016 | 59 | 0.0 | 0.0 | 0.00 | 0.00 | 0.00 | 73 | 1018.5 | |
| 20260507023018 | 59 | 0.0 | 0.0 | 0.00 | 0.00 | 0.00 | 73 | 1018.4 | |
| 20260507022017 | 59 | 0.0 | 0.9 | 0.00 | 0.00 | 0.00 | 73 | 1018.4 | |
| 20260507021017 | 59 | 0.0 | 2.6 | 0.00 | 0.00 | 0.00 | 73 | 1018.5 | |
| 20260507020022 | 59 | 0.0 | 2.6 | 0.00 | 0.00 | 0.00 | 73 | 1018.5 | |
| 20260507015016 | 59 | 0.0 | 1.7 | 0.00 | 0.00 | 0.00 | 72 | 1018.4 | |
| 20260507014016 | 59 | 0.0 | 2.6 | 0.00 | 0.00 | 0.00 | 72 | 1018.4 | |
| 20260507013017 | 59 | 0 | 0.9 | 3.5 | 0.00 | 0.00 | 0.00 | 72 | 1018.4 |
| 20260507012017 | 60 | 338 | 1.7 | 3.5 | 0.00 | 0.00 | 0.00 | 70 | 1018.3 |
| 20260507011017 | 61 | 45 | 0.9 | 3.5 | 0.00 | 0.00 | 0.00 | 68 | 1018.3 |
| 20260507010017 | 62 | 0 | 0.9 | 4.3 | 0.00 | 0.00 | 0.00 | 66 | 1018.3 |
| 20260507005017 | 63 | 0 | 0.9 | 4.3 | 0.00 | 0.00 | 0.00 | 65 | 1018.2 |
| 20260507004059 | 63 | 68 | 0.9 | 3.5 | 0.00 | 0.00 | 0.00 | 65 | 1018.3 |
| 20260507003017 | 63 | 0 | 1.7 | 5.2 | 0.00 | 0.00 | 0.00 | 65 | 1018.3 |
| 20260507002017 | 63 | 0 | 1.7 | 5.2 | 0.00 | 0.00 | 0.00 | 65 | 1018.3 |
| 20260507001017 | 63 | 0 | 1.7 | 5.2 | 0.00 | 0.00 | 0.00 | 65 | 1018.3 |
| 20260507000017 | 63 | 0 | 1.7 | 5.2 | 0.00 | 0.00 | 0.00 | 64 | 1018.2 |
| 20260506235017 | 63 | 0 | 1.7 | 4.3 | 0.00 | 0.00 | 0.00 | 64 | 1018.3 |
| 20260506234016 | 63 | 68 | 1.7 | 4.3 | 0.00 | 0.00 | 0.00 | 64 | 1018.2 |
| 20260506233017 | 64 | 68 | 0.9 | 4.3 | 0.00 | 0.00 | 0.00 | 64 | 1018.3 |
| 20260506232015 | 63 | 68 | 0.9 | 4.3 | 0.00 | 0.00 | 0.00 | 64 | 1018.2 |
| 20260506231015 | 64 | 68 | 1.7 | 4.3 | 0.00 | 0.00 | 0.00 | 62 | 1018.3 |
| 20260506230015 | 65 | 68 | 0.9 | 4.3 | 0.00 | 0.00 | 0.00 | 60 | 1018.3 |
| 20260506225015 | 66 | 0.0 | 2.6 | 0.00 | 0.00 | 0.00 | 59 | 1018.3 | |
| 20260506224038 | 66 | 158 | 0.9 | 5.2 | 0.00 | 0.00 | 0.00 | 59 | 1018.4 |
| 20260506223019 | 66 | 158 | 0.9 | 3.5 | 0.00 | 0.00 | 0.00 | 59 | 1018.5 |
| 20260506222018 | 66 | 158 | 0.9 | 3.5 | 0.00 | 0.00 | 0.00 | 60 | 1018.5 |
| 20260506221017 | 66 | 158 | 0.9 | 4.3 | 0.00 | 0.00 | 0.00 | 59 | 1018.5 |
| 20260506220017 | 66 | 113 | 0.9 | 4.3 | 0.00 | 0.00 | 0.00 | 59 | 1018.6 |
| 20260506215017 | 66 | 135 | 0.9 | 4.3 | 0.00 | 0.00 | 0.00 | 59 | 1018.5 |
| 20260506214017 | 66 | 158 | 1.7 | 4.3 | 0.00 | 0.00 | 0.00 | 59 | 1018.5 |
| 20260506213017 | 67 | 135 | 1.7 | 5.2 | 0.00 | 0.00 | 0.00 | 58 | 1018.5 |
| 20260506212018 | 66 | 158 | 0.9 | 3.5 | 0.00 | 0.00 | 0.00 | 58 | 1018.5 |
| 20260506211039 | 66 | 135 | 0.9 | 2.6 | 0.00 | 0.00 | 0.00 | 59 | 1018.5 |
| 20260506210017 | 65 | 248 | 0.9 | 3.5 | 0.00 | 0.00 | 0.00 | 59 | 1018.5 |
| 20260506205018 | 65 | 68 | 0.9 | 3.5 | 0.00 | 0.00 | 0.00 | 59 | 1018.6 |
| 20260506204017 | 66 | 68 | 0.9 | 3.5 | 0.00 | 0.00 | 0.00 | 58 | 1018.5 |
| 20260506203017 | 66 | 135 | 0.9 | 3.5 | 0.00 | 0.00 | 0.00 | 58 | 1018.5 |
| 20260506202018 | 66 | 0.0 | 4.3 | 0.00 | 0.00 | 0.00 | 58 | 1018.6 | |
| 20260506201059 | 65 | 135 | 1.7 | 4.3 | 0.00 | 0.00 | 0.00 | 59 | 1018.5 |
| 20260506200017 | 65 | 135 | 1.7 | 3.5 | 0.00 | 0.00 | 0.00 | 60 | 1018.5 |
| 20260506195017 | 65 | 135 | 1.7 | 4.3 | 0.00 | 0.00 | 0.00 | 60 | 1018.3 |
| 20260506194016 | 65 | 135 | 1.7 | 4.3 | 0.00 | 0.00 | 0.00 | 60 | 1018.4 |
| 20260506193022 | 65 | 135 | 1.7 | 5.2 | 0.00 | 0.00 | 0.00 | 60 | 1018.5 |
| 20260506192017 | 65 | 135 | 1.7 | 4.3 | 0.00 | 0.00 | 0.00 | 61 | 1018.3 |
| 20260506191018 | 65 | 135 | 1.7 | 6.1 | 0.00 | 0.00 | 0.00 | 61 | 1018.3 |
| 20260506190019 | 64 | 158 | 1.7 | 5.2 | 0.00 | 0.00 | 0.00 | 62 | 1018.2 |
| 20260506185019 | 64 | 135 | 1.7 | 5.2 | 0.00 | 0.00 | 0.00 | 63 | 1018.2 |
| 20260506184037 | 64 | 158 | 1.7 | 4.3 | 0.00 | 0.00 | 0.00 | 62 | 1018.1 |
| 20260506183037 | 64 | 135 | 1.7 | 5.2 | 0.00 | 0.00 | 0.00 | 61 | 1018.0 |
| 20260506182037 | 64 | 158 | 1.7 | 4.3 | 0.00 | 0.00 | 0.00 | 62 | 1018.0 |
| 20260506181017 | 64 | 158 | 0.9 | 3.5 | 0.00 | 0.00 | 0.00 | 62 | 1018.0 |
| 20260506180017 | 63 | 158 | 1.7 | 5.2 | 0.00 | 0.00 | 0.00 | 63 | 1017.9 |
| 20260506175017 | 63 | 158 | 1.7 | 5.2 | 0.00 | 0.00 | 0.00 | 63 | 1017.9 |
| 20260506174019 | 62 | 158 | 1.7 | 4.3 | 0.00 | 0.00 | 0.00 | 65 | 1017.8 |
| 20260506173018 | 62 | 135 | 0.9 | 4.3 | 0.00 | 0.00 | 0.00 | 65 | 1017.7 |
| 20260506172039 | 61 | 158 | 0.9 | 3.5 | 0.00 | 0.00 | 0.00 | 68 | 1017.8 |
| 20260506171017 | 61 | 135 | 1.7 | 3.5 | 0.00 | 0.00 | 0.00 | 69 | 1017.9 |
| 20260506170018 | 60 | 135 | 1.7 | 6.1 | 0.00 | 0.00 | 0.00 | 69 | 1017.8 |
| 20260506165018 | 60 | 135 | 1.7 | 4.3 | 0.00 | 0.00 | 0.00 | 70 | 1017.7 |
| 20260506164017 | 59 | 135 | 0.9 | 3.5 | 0.00 | 0.00 | 0.00 | 71 | 1017.7 |
| 20260506163017 | 58 | 135 | 0.9 | 2.6 | 0.00 | 0.00 | 0.00 | 72 | 1017.8 |
| 20260506162017 | 58 | 135 | 1.7 | 6.1 | 0.00 | 0.00 | 0.00 | 73 | 1017.8 |
| 20260506161017 | 57 | 158 | 0.9 | 4.3 | 0.00 | 0.00 | 0.00 | 74 | 1017.9 |
| 20260506160017 | 57 | 135 | 1.7 | 4.3 | 0.00 | 0.00 | 0.00 | 75 | 1017.8 |
| 20260506155017 | 56 | 158 | 0.9 | 4.3 | 0.00 | 0.00 | 0.00 | 77 | 1017.8 |
| 20260506154017 | 55 | 158 | 0.9 | 3.5 | 0.00 | 0.00 | 0.00 | 77 | 1017.9 |
| 20260506153039 | 55 | 180 | 0.9 | 4.3 | 0.00 | 0.00 | 0.00 | 78 | 1018.0 |
| 20260506152019 | 55 | 158 | 0.9 | 4.3 | 0.00 | 0.00 | 0.00 | 79 | 1018.1 |
| 20260506151017 | 55 | 135 | 0.9 | 3.5 | 0.00 | 0.00 | 0.00 | 79 | 1018.0 |
| 20260506150039 | 54 | 158 | 0.9 | 3.5 | 0.00 | 0.00 | 0.00 | 80 | 1017.9 |
| 20260506145017 | 54 | 158 | 0.9 | 4.3 | 0.00 | 0.00 | 0.00 | 81 | 1017.8 |
| 20260506144017 | 53 | 135 | 0.9 | 3.5 | 0.00 | 0.00 | 0.00 | 82 | 1017.6 |
| 20260506143017 | 53 | 180 | 0.9 | 2.6 | 0.00 | 0.00 | 0.00 | 85 | 1017.5 |
| 20260506142017 | 52 | 0.0 | 0.9 | 0.00 | 0.00 | 0.00 | 85 | 1017.4 | |
| 20260506141017 | 52 | 0.0 | 0.9 | 0.00 | 0.00 | 0.00 | 86 | 1017.3 | |
| 20260506140017 | 51 | 0.0 | 1.7 | 0.00 | 0.00 | 0.00 | 87 | 1017.3 | |
| 20260506135017 | 51 | 0.0 | 0.0 | 0.00 | 0.00 | 0.00 | 88 | 1017.2 | |
| 20260506134017 | 50 | 0.0 | 0.0 | 0.00 | 0.00 | 0.00 | 88 | 1017.3 | |
| 20260506133017 | 50 | 0.0 | 0.0 | 0.00 | 0.00 | 0.00 | 89 | 1017.0 | |
| 20260506132017 | 49 | 0.0 | 1.7 | 0.00 | 0.00 | 0.00 | 89 | 1017.0 | |
| 20260506131017 | 49 | 0.0 | 0.0 | 0.00 | 0.00 | 0.00 | 88 | 1016.9 | |
| 20260506130017 | 49 | 0.0 | 0.0 | 0.00 | 0.00 | 0.00 | 88 | 1016.8 | |
| 20260506125017 | 49 | 0.0 | 0.0 | 0.00 | 0.00 | 0.00 | 88 | 1016.6 | |
| 20260506124037 | 49 | 0.0 | 0.0 | 0.00 | 0.00 | 0.00 | 87 | 1016.5 | |
| 20260506123039 | 49 | 0.0 | 0.0 | 0.00 | 0.00 | 0.00 | 87 | 1016.6 | |
| 20260506122017 | 50 | 0.0 | 0.0 | 0.00 | 0.00 | 0.00 | 87 | 1016.6 | |
| 20260506121017 | 50 | 0.0 | 0.0 | 0.00 | 0.00 | 0.00 | 86 | 1016.6 | |
| 20260506120020 | 50 | 0.0 | 0.0 | 0.00 | 0.00 | 0.00 | 86 | 1016.5 | |
| 20260506115017 | 50 | 0.0 | 0.0 | 0.00 | 0.00 | 0.00 | 86 | 1016.5 | |
| 20260506114039 | 50 | 0.0 | 0.0 | 0.00 | 0.00 | 0.00 | 86 | 1016.4 | |
| 20260506113017 | 50 | 0.0 | 0.0 | 0.00 | 0.00 | 0.00 | 87 | 1016.1 | |
| 20260506112017 | 50 | 0.0 | 1.7 | 0.00 | 0.00 | 0.00 | 87 | 1016.0 | |
| 20260506111017 | 50 | 0.0 | 0.9 | 0.00 | 0.00 | 0.00 | 87 | 1015.9 | |
| 20260506110100 | 50 | 0.0 | 0.0 | 0.00 | 0.00 | 0.00 | 87 | 1015.6 | |
| 20260506105017 | 50 | 0.0 | 0.0 | 0.00 | 0.00 | 0.00 | 87 | 1015.5 | |
| 20260506104017 | 50 | 0.0 | 0.0 | 0.00 | 0.00 | 0.00 | 87 | 1015.4 | |
| 20260506103017 | 50 | 0.0 | 0.0 | 0.00 | 0.00 | 0.00 | 86 | 1015.3 | |
| 20260506102019 | 50 | 0.0 | 0.0 | 0.00 | 0.00 | 0.00 | 86 | 1015.1 | |
| 20260506101017 | 50 | 0.0 | 0.0 | 0.00 | 0.00 | 0.00 | 85 | 1015.1 | |
| 20260506100017 | 51 | 0.0 | 0.0 | 0.00 | 0.00 | 0.00 | 85 | 1014.9 | |
| 20260506095017 | 51 | 0.0 | 0.0 | 0.00 | 0.00 | 0.00 | 85 | 1014.8 | |
| 20260506094017 | 51 | 0.0 | 0.0 | 0.00 | 0.00 | 0.00 | 85 | 1014.8 | |
| 20260506093017 | 51 | 0.0 | 0.0 | 0.00 | 0.00 | 0.00 | 84 | 1014.6 | |
| 20260506092037 | 51 | 0.0 | 0.0 | 0.00 | 0.00 | 0.00 | 84 | 1014.7 | |
| 20260506091017 | 52 | 0.0 | 0.0 | 0.00 | 0.00 | 0.00 | 84 | 1014.6 | |
| 20260506090017 | 52 | 0.0 | 0.0 | 0.00 | 0.00 | 0.00 | 83 | 1014.7 | |
| 20260506085018 | 52 | 0.0 | 0.0 | 0.00 | 0.00 | 0.00 | 83 | 1014.6 | |
| 20260506084039 | 52 | 0.0 | 0.0 | 0.00 | 0.00 | 0.00 | 83 | 1014.5 | |
| 20260506083017 | 53 | 0.0 | 0.0 | 0.00 | 0.00 | 0.00 | 82 | 1014.5 | |
| 20260506082017 | 53 | 0.0 | 0.0 | 0.00 | 0.00 | 0.00 | 82 | 1014.5 | |
| 20260506081017 | 53 | 0.0 | 0.0 | 0.00 | 0.00 | 0.00 | 82 | 1014.5 | |
| 20260506073017 | 54 | 0.0 | 0.0 | 0.00 | 0.00 | 0.00 | 79 | 1014.3 | |
| 20260506072017 | 55 | 0.0 | 0.0 | 0.00 | 0.00 | 0.00 | 79 | 1014.2 | |
| 20260506071017 | 55 | 0.0 | 2.6 | 0.00 | 0.00 | 0.00 | 78 | 1014.1 | |
| 20260506062037 | 56 | 0.0 | 0.0 | 0.00 | 0.00 | 0.00 | 75 | 1013.6 | |
| 20260506061017 | 56 | 0.0 | 0.0 | 0.00 | 0.00 | 0.00 | 74 | 1013.6 | |
| 20260506051017 | 59 | 0.0 | 1.7 | 0.00 | 0.00 | 0.00 | 68 | 1013.2 | |
| 20260506045037 | 60 | 0.0 | 6.1 | 0.00 | 0.00 | 0.00 | 66 | 1013.1 | |
| 20260506044017 | 60 | 0.0 | 6.1 | 0.00 | 0.00 | 0.00 | 65 | 1013.0 | |
| 20260506043017 | 61 | 0.0 | 2.6 | 0.00 | 0.00 | 0.00 | 65 | 1012.9 | |
| 20260506042017 | 61 | 203 | 0.9 | 3.5 | 0.00 | 0.00 | 0.00 | 64 | 1012.8 |
| 20260506041017 | 61 | 0.0 | 4.3 | 0.00 | 0.00 | 0.00 | 64 | 1012.8 |